Regional Weather Roundup
Issued by NWS

Home | Current Version | Previous Version | Text Only | Print | Product List | Glossary Off
Versions: 1 2 3 4 5 6 7 8 9 10 11 12 13 14 15 16 17 18 19 20 21 22 23 24 25 26 27 28 29 30 31 32 33 34 35 36 37 38 39 40 41 42 43 44 45 46 47 48 49 50

000
ASUS45 KTFX 271804
RWRMT
MONTANA REGIONAL WEATHER ROUNDUP
NATIONAL WEATHER SERVICE GREAT FALLS MT
1200 PM MDT THU AUG 27 2015

NOTE: "FAIR" INDICATES FEW OR NO CLOUDS BELOW 12000 FEET WITH NO
SIGNIFICANT WEATHER AND/OR OBSTRUCTIONS TO VISIBILITY.

MTZ001>007-043-271900-
WEST OF THE DIVIDE

CITY           SKY/WX    TMP DP  RH WIND       PRES   REMARKS
KALISPELL      CLOUDY    73  42  32 CALM      30.06F SMOKE
MISSOULA       CLOUDY    70  42  36 SE5       30.11F HAZE
BUTTE          PTSUNNY   76  39  26 CALM      30.24F HAZE
MULLAN PASS    CLOUDY    68  35  29 NW6       30.26S HAZE
DEER LODGE       N/A     72  45  37 NE3       30.21S
EUREKA           N/A     68  43  40 CALM      30.07S
HAMILTON         N/A     66  50  55 NW5       30.12F
LIBBY            N/A     64  43  45 CALM      30.08S
$$

MTZ008-052>055-271900-
SOUTHWEST MONTANA

CITY           SKY/WX    TMP DP  RH WIND       PRES   REMARKS
BOZEMAN        CLOUDY    68  53  58 SE8       30.20S
DILLON         MOSUNNY   76  45  33 SW6       30.23S
$$

MTZ009-010-012-014-046-048-049-054-271900-
EAST SLOPES AND CENTRAL MONTANA

CITY           SKY/WX    TMP DP  RH WIND       PRES   REMARKS
CUT BANK       CLOUDY    84  35  17 W21G28    30.04S HAZE
GREAT FALLS    CLOUDY    80  42  25 SW13      30.04F
MALMSTROM AFB  CLOUDY    73  44  35 SW8       30.04F
HELENA         CLOUDY    70  44  39 E10       30.13F
$$

MTZ011-013-016-021-045-047-050-051-271900-
NORTH CENTRAL MONTANA

CITY           SKY/WX    TMP DP  RH WIND       PRES   REMARKS
HAVRE          MOSUNNY   76  50  40 W8        29.97F
LEWISTOWN      CLOUDY    80  51  36 CALM      30.08S
N BAR RANCH      N/A     77  50  38 CALM      30.11S
CHINOOK          N/A     73  54  49 W5        29.97S
FORT BENTON      N/A     72  45  37 CALM      30.01F
$$

MTZ017>020-022>027-061-062-271900-
NORTHEAST MONTANA

CITY           SKY/WX    TMP DP  RH WIND       PRES   REMARKS
GLASGOW        MOSUNNY   79  58  48 S3        29.95F
JORDAN           N/A     82  59  45 S6        29.97F
SIDNEY         MOSUNNY   79  64  61 E3        29.95F
WOLF POINT     MOSUNNY   80  62  54 S6        29.95F
PLENTYWOOD       N/A     81  61  50 SW5       29.96F
POPLAR           N/A     79  61  53 CALM      29.96F
$$

MTZ028>42-056>058-271900-
SOUTHCENTRAL AND SOUTHEAST MONTANA

CITY           SKY/WX    TMP DP  RH WIND       PRES   REMARKS
BAKER          MOSUNNY   79  64  60 NW9       29.99F
BILLINGS       PTSUNNY   80  53  39 SW18G25   30.07F
LIVINGSTON     MOSUNNY   80  44  27 W10       30.17R
MILES CITY     PTSUNNY   86  53  32 W13       29.97F
FORSYTH          N/A     81  52  36 W5        29.99F
$$

REGIONAL REPORTS...DAKOTAS

CITY           SKY/WX    TMP DP  RH WIND       PRES   REMARKS
WILLISTON      MOSUNNY   79  64  60 SE3       29.96F
MINOT          PTSUNNY   75  62  64 N3        29.95F
DICKINSON      CLOUDY    82  58  43 S7        29.96F
BISMARCK       CLOUDY    75  65  70 S6        29.98S
GRAND FORKS    PTSUNNY   73  59  61 S9        29.95F
FARGO          MOSUNNY   76  62  62 S7        29.96S
BUFFALO SD       N/A     80  62  54 W8        29.94F
RAPID CITY     CLOUDY    74  59  59 N14       30.04F
$$

REGIONAL REPORTS...WYOMING/IDAHO/WASHINGTON

CITY           SKY/WX    TMP DP  RH WIND       PRES   REMARKS
GILLETTE       CLOUDY    74  53  48 SE10      30.11S
SHERIDAN       PTSUNNY   84  49  29 W5        30.07F
BUFFALO WY     CLOUDY    79  48  33 S12       30.16F
CODY           SUNNY     75  46  35 SW6       30.19S
YELLOWSTONE LA   N/A     56  48  74 VRB3      30.45S
IDAHO FALLS    PTSUNNY   72  55  55 S5        30.27F
SALMON         MOSUNNY   75  46  35 N5        30.16F
BOISE          PTSUNNY   84  41  21 N5        30.15R
SPOKANE        MOSUNNY   76  39  26 S12       30.07R
$$

REGIONAL REPORTS...ALBERTA

CITY           SKY/WX    TMP DP  RH WIND       PRES   REMARKS
$$

REGIONAL REPORTS...SASKATCHEWAN

CITY           SKY/WX    TMP DP  RH WIND       PRES   REMARKS
$$


USA.gov is the U.S. government's official web portal to all federal, state and local government web resources and services.